Regional Weather Roundup
Issued by NWS

Home | Current Version | Previous Version | Graphics & Text | Print | Product List | Glossary On
Versions: 1 2 3 4 5 6 7 8 9 10 11 12 13 14 15 16 17 18 19 20 21 22 23 24 25 26 27 28 29 30 31 32 33 34 35 36 37 38 39 40 41 42 43 44 45 46 47 48 49 50
000
ASUS43 KMKX 281800
RWRWI

WISCONSIN REGIONAL WEATHER ROUNDUP
NATIONAL WEATHER SERVICE MILWAUKEE/SULLIVAN WI
100 PM CDT SUN MAY 28 2017

NOTE: "FAIR" INDICATES FEW OR NO CLOUDS BELOW 12,000 FEET WITH NO
SIGNIFICANT WEATHER AND/OR OBSTRUCTIONS TO VISIBILITY.

WIZ001-002-006>008-014>016-023>028-281900-
NORTHWEST WISCONSIN

CITY           SKY/WX    TMP DP  RH WIND       PRES   REMARKS
SUPERIOR ARPT  NOT AVBL
ASHLAND        PTSUNNY   60  53  77 CALM      29.65F
6HR MIN TEMP:  55; 6HR MAX TEMP:  63; 6HR PCP:  0.16;

HAYWARD        MOSUNNY   66  44  45 W9G18     29.66S
6HR MIN TEMP:  55; 6HR MAX TEMP:  66; 6HR PCP:  0.19;

SIREN          PTSUNNY   64  45  49 W13G20    29.70S
CUMBERLAND     PTSUNNY   63  45  51 W13G25    29.70S
RICE LAKE      PTSUNNY   65  42  43 W15       29.71S
CHETEK         CLOUDY    65  47  53 NW9G21    29.70S
LADYSMITH      MOSUNNY   66  46  47 W20       29.69R
EAU CLAIRE     NOT AVBL
MENOMONIE      PTSUNNY   67  44  44 W17G25    29.72R
NEW RICHMOND   PTSUNNY   65  45  48 W17G25    29.74S
OSCEOLA        PTSUNNY   66  49  54 W14       29.76S
$$

WIZ003>005-009-010-017-018-281900-
NORTH CENTRAL WISCONSIN

CITY           SKY/WX    TMP DP  RH WIND       PRES   REMARKS
MANITOWISH WTR CLOUDY    59  58  96 W5        29.64F
ARBOR VITAE    LGT RAIN  62  52  69 SW10G24   29.64F
WOODRUFF       LGT RAIN  62  52  69 SW10G24   29.64F
RHINELANDER    CLOUDY    68  48  48 SW14G23   29.65F
6HR MIN TEMP:  55; 6HR MAX TEMP:  71; 6HR PCP: TRACE;

EAGLE RIVER    PTSUNNY   66  45  46 S8        29.64F
LAND O LAKES   MOSUNNY   68  46  44 S6G16     29.66F
PHILLIPS       PTSUNNY   63  54  72 W8G16     29.64F
TOMAHAWK       LGT RAIN  61  52  72 CALM      29.67S
MEDFORD        CLOUDY    65  51  61 SW9       29.67F
MERRILL        PTSUNNY   67  51  56 SW10G20   29.68F
$$

WIZ029-030-035-036-043>047-281900-
CENTRAL WISCONSIN

CITY           SKY/WX    TMP DP  RH WIND       PRES   REMARKS
WAUSAU         PTSUNNY   68  51  54 S15G21    29.65F
6HR MIN TEMP:  54; 6HR MAX TEMP:  69; 6HR PCP:  0.03;

MOSINEE        PTSUNNY   68  54  60 S10G22    29.69F
MARSHFIELD     CLOUDY    67  52  58 W14       29.67F
6HR MIN TEMP:  55; 6HR MAX TEMP:  69; 6HR PCP: TRACE;

STEVENS POINT  CLOUDY    68  51  53 S13       29.70F
WAUPACA        SUNNY     71  54  54 S9        29.71F
WAUTOMA        PTSUNNY   70  54  56 S15       29.71F
6HR MIN TEMP:  57; 6HR MAX TEMP:  70;

WISC RAPIDS    MOSUNNY   71  51  49 S14G20    29.70F
6HR MIN TEMP:  56; 6HR MAX TEMP:  73; 6HR PCP:  0.01;

CAMP DOUGLAS   NOT AVBL
$$

WIZ011>013-019>022-031-037>040-048>050-281900-
NORTHEAST WISCONSIN

CITY           SKY/WX    TMP DP  RH WIND       PRES   REMARKS
ANTIGO         PTSUNNY   66  55  66 S10       29.69F
SHAWANO        MOSUNNY   70  53  56 W6        29.70F
OCONTO         MOSUNNY   65  55  71 W8        29.69F
STURGEON BAY   CLOUDY    60  56  86 W8        29.70F
6HR MIN TEMP:  56; 6HR MAX TEMP:  60;

GREEN BAY      MOSUNNY   66  59  78 SW8       29.70F
6HR MIN TEMP:  57; 6HR MAX TEMP:  66; 6HR PCP:  0.36;

MANITOWOC      NOT AVBL
APPLETON       PTSUNNY   64  52  63 W8        29.71F
CLINTONVILLE   MOSUNNY   68  50  52 S9        29.70F
OSHKOSH        SUNNY     67  54  63 SW7       29.71F
6HR MIN TEMP:  56; 6HR MAX TEMP:  67; 6HR PCP:  0.14;

$$

WIZ032>034-041-042-053>061-281900-
SOUTHWEST WISCONSIN

CITY           SKY/WX    TMP DP  RH WIND       PRES   REMARKS
LA CROSSE      SUNNY     74  47  38 W20G26    29.71F
6HR MIN TEMP:  59; 6HR MAX TEMP:  75;

SPARTA         SUNNY     72  48  43 SW14G22   29.72S
VIROQUA        MOSUNNY   72  48  41 SW6G20    29.74F
BOSCOBEL       MOSUNNY   74  51  44 W12       29.73F
6HR MIN TEMP:  60; 6HR MAX TEMP:  75; 6HR PCP:  0.01;

PRAIRIE DU CHI SUNNY     74  45  34 W16G24    29.75S
PLATTEVILLE    MOSUNNY   72  56  57 SW13      29.78S
$$

WIZ056-057-062-063-064-067-068-281900-
SOUTH CENTRAL WISCONSIN

CITY           SKY/WX    TMP DP  RH WIND       PRES   REMARKS
REEDSBURG      PTSUNNY   70  52  52 SW12G22   29.73F
BARABOO/DELLS  PTSUNNY   70  50  48 W8        29.74S
LONE ROCK      NOT AVBL
MINERAL POINT  CLOUDY    72  54  53 SW10G16   29.77S
MADISON        MOSUNNY   68  53  58 S7        29.74F
6HR MIN TEMP:  56; 6HR MAX TEMP:  69; 6HR PCP:  0.01;

MIDDLETON      SUNNY     71  54  55 W7        29.75F
WATERTOWN      MOSUNNY   65  58  78 SW5       29.74F
MONROE         MOSUNNY   68  50  52 SW8       29.77F
JANESVILLE     MOSUNNY   70  55  60 NW8       29.76S
$$

WIZ051-052-058>065-066-070>072-281900-
SOUTHEAST WISCONSIN

CITY           SKY/WX    TMP DP  RH WIND       PRES   REMARKS
MILWAUKEE      CLOUDY    66  61  84 NW5       29.74F
6HR MIN TEMP:  59; 6HR MAX TEMP:  66; 6HR PCP:  0.54;

WAUKESHA       PTSUNNY   63  55  77 NW5       29.75F
MILWAUKEE/TIMM PTSUNNY   64  55  72 CALM      29.75F
RACINE         CLOUDY    65  61  87 CALM      29.75F
6HR MIN TEMP:  59; 6HR MAX TEMP:  65; 6HR PCP:  0.23;

KENOSHA        CLOUDY    66  61  84 NW8       29.74F
6HR MIN TEMP:  60; 6HR MAX TEMP:  66; 6HR PCP:  0.15;

FOND DU LAC    MOSUNNY   67  54  63 W7        29.72F
6HR MIN TEMP:  57; 6HR MAX TEMP:  68; 6HR PCP:  0.19;

SHEBOYGAN      MOSUNNY   66  59  78 W8        29.72F
6HR MIN TEMP:  57; 6HR MAX TEMP:  66; 6HR PCP:  0.56;

WEST BEND      PTSUNNY   63  59  88 NW5       29.73F
JUNEAU         MOSUNNY   64  56  77 CALM      29.75F
$$

LSZ147-162-281900-
LAKE SUPERIOR

STATION/POSITION TIME  TEMP    WIND        PRES    WAVE
                       AIR SEA DIR/SP/G            HT/PER
                 (UTC) (F)     (DEG/KT/KT) (MB)    (FT/S)
W MID LAKE BUOY  1650   45 38  170/  4/  4 1004.6F   0
DEVILS ISLAND    1700   51     240/ 10/ 11 1005.5R
PORT WING        1740   52     350/  3/  4 1004.4F
SAXON HARBOR     1740   58      60/  1/  2 1004.4S
$$

LMZ867-665-643>646-281900-
LAKE MICHIGAN

STATION/POSITION TIME  TEMP    WIND        PRES    WAVE
                       AIR SEA DIR/SP/G            HT/PER
                 (UTC) (F)     (DEG/KT/KT) (MB)    (FT/S)
CHAMBERS ISLAND  1740   59     230/  3/  6 1005.1F
N MID LAKE BUOY  1650   45 41  280/  6/  6 1007.4F
NORTHPORT PIER   1740   58     230/  2/  8 1005.4F
SISTER BAY       1636   56        CALM       N/A
KEWAUNEE LAKESHO 1730   61     270/  5/  6 1006.0R
SHEBOYGAN LAKESH 1700   58      CALM  /  2 1006.4F
PORT WASHINGTON  1730   60     180/  4/  7 1007.8F
ATWATER BUOY     1609   52     310/  4/  4 1007.9F
MILWAUKEE LAKESH 1730   56      60/  4/  4   N/A
S MID LAKE BUOY  1650   52 49   30/ 10/ 12 1007.2F   0
KENOSHA   LAKESH 1700   56        CALM     1007.5
$$

TC  - TEMPERATURE IN CELSIUS
VSB - VISIBILITY IN STATUTE MILES
WCI - WIND CHILL INDEX
HX  - HEAT INDEX





USA.gov is the U.S. government's official web portal to all federal, state and local government web resources and services.